Flag for Canada Weather past 2 weeks in Waterloo, Ontario, Canada

Now
70 °F

Sunny.


Feels Like: 70 °F
Forecast: 62 / 80 °F
Wind: 7 mph from West

Location: Waterloo Well

Current Time: Jul 30, 2015 at 8:36:03 AM

Latest Report: Jul 30, 2015 at 8:00 AM


Visibility: 9 mi

Pressure: 29.88 "Hg

Humidity: 73%

Dew point: 61 °F

Location of WaterlooLocation

Historic Weather in Waterloo — Graph

°F

Waterloo temperature yesterday

Maximum temperature yesterday: 90 °F (at 3:00 PM)
Minimum temperature yesterday: 61 °F (at 6:00 AM)
Average temperature yesterday: 75 °F

Past Weeks' High & Low Weather Summary

 TemperatureHumidityPressure
High90 °F (Jul 29, 3:00 PM)100% (Jul 16, 12:00 AM)30.14 "Hg (Jul 16, 12:00 AM)
Low46 °F (Jul 16, 5:00 AM)31% (Jul 29, 3:00 PM)29.64 "Hg (Jul 21, 2:00 AM)
Average70 °F73%29.92 "Hg
* Reported Jul 15 7:00 AM — Jul 30 7:00 AM, Waterloo, Weather by CustomWeather, © 2015

Note: Actual official high and low records may vary slightly from our data, if they occured in-between our weather recording intervals... More about our weather records

Advertising

Waterloo weather history for previous 24 hours

 ConditionsComfort  
Time TempWeatherWind HumidityBarometerVisibility
7:00 AM
Thu, Jul 30
66 °FClear.6 mph78%29.87 "Hg9 mi
6:00 AM64 °FClear.7 mph83%29.85 "Hg9 mi
5:00 AM66 °FClear.8 mph78%29.84 "Hg9 mi
4:00 AM68 °FClear.8 mph73%29.83 "Hg9 mi
3:00 AM72 °FClear.14 mph69%29.83 "Hg9 mi
2:00 AM73 °FPassing clouds.15 mph74%29.83 "Hg9 mi
1:00 AM77 °FOvercast.15 mph74%29.84 "Hg9 mi
12:00 AM77 °FOvercast.14 mph74%29.84 "Hg9 mi
11:00 PM
Wed, Jul 29
77 °FPassing clouds.12 mph69%29.84 "Hg9 mi
10:00 PM77 °FPassing clouds.9 mph69%29.85 "Hg8 mi
9:00 PM79 °FPartly sunny.8 mph61%29.85 "Hg9 mi
8:00 PM81 °FPartly sunny.10 mph54%29.86 "Hg9 mi
7:00 PM82 °FPartly sunny.10 mph51%29.86 "Hg9 mi
6:00 PM84 °FScattered clouds.12 mph43%29.87 "Hg9 mi
5:00 PM90 °FSunny.14 mph33%29.87 "Hg9 mi
4:00 PM90 °FSunny.13 mph33%29.87 "Hg9 mi
3:00 PM90 °FPassing clouds.14 mph31%29.91 "Hg9 mi
2:00 PM88 °FScattered clouds.10 mph40%29.93 "Hg9 mi
1:00 PM88 °FPassing clouds.12 mph43%29.94 "Hg9 mi
12:00 PM86 °FSunny.12 mph43%29.96 "Hg9 mi
11:00 AM84 °FSunny.8 mph48%29.97 "Hg9 mi
10:00 AM81 °FSunny.3 mph62%29.98 "Hg9 mi
9:00 AM72 °FPartly sunny.No wind83%29.99 "Hg8 mi
8:00 AM66 °FFog.2 mph100%29.98 "Hg6 mi
Weather by CustomWeather, © 2015

See weather overviewHow to use our weather pages